Location: Lewisville
(33.0462°N, 96.9942°W)
Time: 19:11:40
(UTC-06:00)

OTV 5 (USA 277) - Pass Details

Date: 14 September 2019
Orbit: 310 x 324 km, 54.5° (Epoch: 17 October)

Event Time Altitude Azimuth Distance (km) Brightness Sun altitude
Rises 20:55:49 0° 315° (NW) 2,034 ? -17.3°
Reaches altitude 10° 20:57:48 10° 312° (NW) 1,201 ? -17.7°
Enters shadow 21:00:23 63° 235° (SW) 350 ? -18.3°
